Home > Weather > Nairobi > Past weeks

Flag for Kenya Past Weather in Nairobi, Kenya — Yesterday and Last 2 Weeks

Now
57 °F

Passing clouds.


Feels Like: 57 °F
Forecast: 54 / 72 °F
Wind: No wind

Location: Kenyatta Airport

Current Time: Aug 29, 2016 at 6:53:58 AM

Latest Report: Aug 29, 2016 at 6:00 AM


Visibility: N/A

Pressure: 30.27 "Hg (24.78 "Hg at 1680m altitude)

Humidity: 82%

Dew Point: 52 °F

Location of NairobiLocation

Past Weather in Nairobi — Graph

°F

Nairobi Temperature Yesterday

Maximum temperature yesterday: 75 °F (at 4:00 PM)
Minimum temperature yesterday: 54 °F (at 2:00 AM)
Average temperature yesterday: 65 °F

High & Low Weather Summary for the Past Weeks

 TemperatureHumidityPressure
High82 °F (Aug 21, 1:30 PM)94% (Aug 15, 1:00 AM)30.36 "Hg (Aug 15, 1:00 AM)
Low48 °F (Aug 25, 7:00 AM)28% (Aug 25, 4:00 PM)30.09 "Hg (Aug 20, 4:30 PM)
Average65 °F65%30.23 "Hg
* Reported Aug 14 5:00 AM — Aug 29 5:30 AM, Nairobi, Weather by CustomWeather, © 2016

Note: Actual official high and low records may vary slightly from our data, if they occured in-between our weather recording intervals... More about our weather records

Advertising

Nairobi Weather History for the Previous 24 Hours

Scroll right to see more
 ConditionsComfort  
Time TempWeatherWind HumidityBarometerVisibility
5:30 AM
Mon, Aug 29
55 °FPassing clouds.3 mph88%30.27 "HgN/A
5:00 AM55 °FPassing clouds.3 mph88%30.27 "HgN/A
4:00 AM55 °FPassing clouds.3 mph88%30.24 "HgN/A
3:30 AM57 °FPassing clouds.5 mph82%30.24 "HgN/A
3:00 AM57 °FPassing clouds.3 mph82%30.24 "HgN/A
2:00 AM55 °FClear.8 mph82%30.24 "Hg10 mi
1:00 AM57 °FClear.7 mph82%30.27 "Hg10 mi
12:30 AM57 °FClear.7 mph77%30.27 "Hg10 mi
12:00 AM61 °FClear.7 mph68%30.27 "Hg10 mi
11:30 PM
Sun, Aug 28
63 °FPassing clouds.8 mph64%30.30 "HgN/A
11:00 PM63 °FPassing clouds.6 mph64%30.30 "HgN/A
10:30 PM63 °FPassing clouds.5 mph64%30.27 "HgN/A
10:00 PM63 °FPassing clouds.6 mph64%30.27 "HgN/A
9:30 PM64 °FPassing clouds.7 mph60%30.21 "HgN/A
9:00 PM64 °FPassing clouds.7 mph56%30.24 "HgN/A
8:30 PM68 °FPassing clouds.9 mph49%30.24 "HgN/A
8:00 PM68 °FPassing clouds.12 mph49%30.24 "HgN/A
7:30 PM68 °FPassing clouds.13 mph49%30.24 "HgN/A
7:00 PM70 °FPassing clouds.12 mph43%30.21 "HgN/A
6:30 PM72 °FScattered clouds.12 mph41%30.21 "HgN/A
6:00 PM72 °FScattered clouds.9 mph41%30.21 "HgN/A
5:30 PM73 °FScattered clouds.10 mph38%30.18 "HgN/A
5:00 PM73 °FScattered clouds.9 mph38%30.21 "HgN/A
4:30 PM75 °FPartly sunny.8 mph36%30.18 "HgN/A
4:00 PM75 °FPartly sunny.5 mph36%30.21 "HgN/A
3:30 PM73 °FPartly sunny.10 mph38%30.21 "HgN/A
3:00 PM73 °FPartly sunny.10 mph38%30.24 "HgN/A
2:00 PM73 °FPartly sunny.7 mph38%30.24 "HgN/A
1:30 PM72 °FPartly sunny.6 mph44%30.30 "HgN/A
1:00 PM70 °FPartly sunny.7 mph46%30.30 "HgN/A
12:00 PM68 °FPartly sunny.7 mph49%30.33 "HgN/A
11:00 AM64 °FBroken clouds.7 mph60%30.36 "HgN/A
10:00 AM61 °FBroken clouds.8 mph77%30.36 "HgN/A
9:00 AM59 °FPartly sunny.6 mph77%30.36 "HgN/A
8:00 AM57 °FPartly sunny.2 mph88%30.33 "HgN/A
7:00 AM57 °FPartly sunny.5 mph88%30.30 "HgN/A
6:00 AM55 °FPassing clouds.2 mph88%30.27 "HgN/A
Weather by CustomWeather, © 2016

See weather overviewHow to use our weather pages